Location: Unspecified
(0.0000°N, 0.0000°E)
Time: 05:08:48
(UTC+00:00)

X-37B - Pass Details

Date: 06 August 2020
Orbit: 379 x 395 km, 45.0° (Epoch: 12 August)

Event Time Altitude Azimuth Distance (km) Brightness Sun altitude
Rises 04:40:45 0° 345° (NNW) 2,270 4.5 -20.4°
Reaches altitude 10° 04:43:29 10° 11° (N) 1,418 3.8 -19.7°
Maximum altitude 04:45:22 15° 47° (NE) 1,177 3.9 -19.3°
Drops below altitude 10° 04:47:14 10° 83° (E) 1,421 4.6 -18.8°
Sets 04:49:59 0° 108° (ESE) 2,278 5.4 -18.2°
